User: anonymous   Login
Location: Hannover
(52.3723°N, 9.7339°E)
Time: 21:08:33
(UTC+01:00)
Language:

SEEDS - Orbit

View from above orbital plane
View from above orbital plane
View from above satellite
View from above satellite

Ground track
Ground track

The orbit data is extracted from the following two-line orbital elements,

1 32791U 08021J   20020.48187725 +.00000362 +00000-0 +41937-4 0  9998
2 32791 097.5339 021.2830 0012055 235.5898 124.4182 14.90955626636182
Epoch (UTC): 20 January 2020 11:33:54
Eccentricity: 0.0012055
inclination: 97.5339°
perigee height: 586 km
apogee height: 603 km
right ascension of ascending node: 21.2830°
argument of perigee: 235.5898°
revolutions per day: 14.90955626
mean anomaly at epoch: 124.4182°
orbit number at epoch: 63618

The dashed part of the orbit path shows where the satellite is in the earth's shadow,  

DLR